Terug naar catalogus

COSMOS 1275 DEB

ActiefPO
NORAD 12772·DEBRIS·🇷🇺 Russia

Gelanceerd Jun 4, 1981 vanaf Plesetsk Cosmodrome

Loading…

Volgende Passages (komende 24 uur)

TLE

VersSource: Space-Track

Epoch: Sep 13, 2026, 16:09 UTC

1 12772U 81053DR  26256.67298051  .00001860  00000-0  85021-3 0  9999
2 12772  82.9224 129.2906 0041555 345.8382  14.1631 14.20587659291397

Volg COSMOS 1275 DEB in realtime met AllMySat

Download on the App Store